DW9947 Daphne AL US current weather conditions

sailwx.info

Wind from 210 at 6 knots

Air temperature 27.8° C
Dewpoint 24.4° C

Last reported at 2019-Jul-21 00:02 UTC.
Time now 2019-Jul-21 00:20 UTC

Location: N 30°36' W 087°55'.
View on Google Maps.

See reports from other nearby stations

  
Tides and Currents Weather Stations Pressure Air Temp Water Temp Dewpoint Dewpoint Depression Visibility Wind Speed Wind Dir Waves Ship Positions
date/time (UTC)wind fromknots sea level pressurealtimeterstation pressurevisibilityair tempwater tempwave heightnotes
2019-Jul-21 00:02 210 6 27.8
2019-Jul-20 23:47 206 3 28.3
2019-Jul-20 23:17 198 1 27.8
2019-Jul-20 22:47 202 0 27.8
2019-Jul-20 22:32 203 2 27.8
2019-Jul-20 22:17 203 2 27.8
2019-Jul-20 22:02 204 3 28.3
2019-Jul-20 21:47 205 1 28.3
2019-Jul-20 21:32 202 1 27.8
2019-Jul-20 21:17 210 2 27.8
2019-Jul-20 20:47 208 4 27.2
2019-Jul-20 20:17 204 27.8
2019-Jul-20 20:02 204 27.8
2019-Jul-20 19:47 203 27.8
2019-Jul-20 19:32 204 27.2
2019-Jul-20 19:17 204 27.2
2019-Jul-20 19:02 203 27.2
2019-Jul-20 18:32 204 26.1
2019-Jul-20 18:17 204 25.6
2019-Jul-20 18:02 204 25.0
2019-Jul-20 17:47 204 25.0
2019-Jul-20 17:32 204 25.0
2019-Jul-20 17:17 204 25.0
2019-Jul-20 16:47 204 24.4
2019-Jul-20 16:32 203 23.9
2019-Jul-20 16:17 204 23.9
2019-Jul-20 16:02 204 24.4
2019-Jul-20 15:47 204 24.4
2019-Jul-20 15:32 204 24.4
2019-Jul-20 15:17 204 24.4
2019-Jul-20 15:02 204 24.4
2019-Jul-20 14:47 204 1 24.4
2019-Jul-20 14:32 197 0 23.9
2019-Jul-20 14:17 182 24.4
2019-Jul-20 14:02 183 24.4
2019-Jul-20 13:47 183 24.4
2019-Jul-20 13:32 183 25.0
2019-Jul-20 13:17 197 25.6
2019-Jul-20 13:02 204 1 26.1
2019-Jul-20 12:47 204 1 25.6
2019-Jul-20 12:32 207 5 26.1
2019-Jul-20 12:17 205 6 26.1
2019-Jul-20 12:02 206 8 26.7
2019-Jul-20 11:47 217 6 26.7
2019-Jul-20 11:32 200 25.0
2019-Jul-20 11:17 271 24.4
2019-Jul-20 11:02 271 24.4
2019-Jul-20 10:32 271 24.4
2019-Jul-20 10:17 271 24.4
2019-Jul-20 10:02 271 24.4
2019-Jul-20 09:47 271 24.4
2019-Jul-20 09:32 271 24.4
2019-Jul-20 09:17 271 24.4
2019-Jul-20 09:02 271 24.4
2019-Jul-20 08:47 271 24.4
2019-Jul-20 08:32 271 24.4
2019-Jul-20 08:17 271 24.4
2019-Jul-20 08:02 271 23.9
2019-Jul-20 07:47 271 23.9
2019-Jul-20 07:17 271 23.3
2019-Jul-20 07:02 271 23.3
2019-Jul-20 06:47 271 23.3
2019-Jul-20 06:32 271 23.3
2019-Jul-20 06:17 271 23.3
2019-Jul-20 05:47 271 23.3
2019-Jul-20 05:32 271 23.3
2019-Jul-20 05:17 271 23.9
2019-Jul-20 05:02 271 23.9
2019-Jul-20 04:47 271 23.3
2019-Jul-20 04:32 271 23.3
2019-Jul-20 04:17 271 23.3
2019-Jul-20 04:02 271 23.3
2019-Jul-20 03:32 271 23.3
2019-Jul-20 03:17 271 23.3
2019-Jul-20 03:02 271 23.3
2019-Jul-20 02:17 271 23.3
2019-Jul-20 02:02 271 23.3
2019-Jul-20 01:47 271 23.3
2019-Jul-20 01:32 271 23.3
2019-Jul-20 01:17 271 23.3
2019-Jul-20 01:02 008 23.3
2019-Jul-20 00:47 354 23.3
2019-Jul-20 00:32 354 24.4
2019-Jul-20 00:17 013 25.6
2019-Jul-19 23:47 066 29.4
2019-Jul-19 23:32 205 2 30.0
2019-Jul-19 23:17 205 1 30.0
2019-Jul-19 23:02 205 4 30.0
2019-Jul-19 22:47 210 3 30.0
2019-Jul-19 22:32 201 2 30.0
2019-Jul-19 22:17 191 1 30.0
2019-Jul-19 22:02 201 2 30.0
2019-Jul-19 21:47 202 3 30.0
2019-Jul-19 21:32 184 1 30.0
2019-Jul-19 21:17 177 1 30.0
2019-Jul-19 21:02 192 3 30.0
2019-Jul-19 20:47 184 4 30.6
2019-Jul-19 20:32 203 2 31.1
2019-Jul-19 20:17 198 2 31.1
2019-Jul-19 20:02 192 3 30.6
2019-Jul-19 19:47 152 2 30.6
2019-Jul-19 19:32 196 3 30.6
2019-Jul-19 19:17 205 3 31.1
2019-Jul-19 18:47 209 3 30.6
2019-Jul-19 18:32 202 3 30.6
2019-Jul-19 18:17 211 2 30.6
2019-Jul-19 18:02 203 2 30.6
2019-Jul-19 17:47 204 3 30.0
2019-Jul-19 17:32 205 2 30.0
2019-Jul-19 17:17 217 1 30.6
2019-Jul-19 17:02 219 0 30.6
2019-Jul-19 16:47 219 30.6
2019-Jul-19 16:32 219 30.6
2019-Jul-19 16:17 219 30.0
2019-Jul-19 16:02 219 30.0
2019-Jul-19 15:47 219 29.4
2019-Jul-19 15:32 219 29.4
2019-Jul-19 15:17 219 0 28.9
2019-Jul-19 15:02 219 28.9
2019-Jul-19 14:47 219 0 28.9
2019-Jul-19 14:32 219 0 28.3
2019-Jul-19 14:17 219 0 28.3
2019-Jul-19 14:02 219 0 28.3
2019-Jul-19 13:47 219 28.3
2019-Jul-19 13:32 219 0 28.3
2019-Jul-19 13:17 219 0 28.3
2019-Jul-19 13:02 216 0 28.3
2019-Jul-19 12:47 206 0 28.3
2019-Jul-19 12:32 206 1 28.3
2019-Jul-19 12:17 206 0 28.3
2019-Jul-19 12:02 206 2 28.3
2019-Jul-19 11:47 206 28.3
2019-Jul-19 11:32 206 28.3
2019-Jul-19 11:17 206 2 28.9
2019-Jul-19 11:02 206 2 28.9
2019-Jul-19 10:47 206 1 28.9
2019-Jul-19 10:32 206 2 28.9
2019-Jul-19 10:17 206 2 28.9
2019-Jul-19 10:02 206 3 28.9
2019-Jul-19 09:47 206 3 28.9
2019-Jul-19 09:32 206 3 28.9
2019-Jul-19 09:17 206 2 28.9
2019-Jul-19 09:02 206 3 28.9
2019-Jul-19 08:17 206 5 29.4
2019-Jul-19 08:02 206 4 29.4
2019-Jul-19 07:47 207 4 29.4
2019-Jul-19 07:32 208 3 29.4
2019-Jul-19 07:17 208 4 29.4
2019-Jul-19 07:02 208 5 29.4
2019-Jul-19 06:47 208 4 29.4
2019-Jul-19 06:32 208 5 29.4
2019-Jul-19 06:17 208 5 29.4
2019-Jul-19 05:47 208 5 29.4
2019-Jul-19 05:32 206 5 29.4
2019-Jul-19 01:02 204 4 30.0
2019-Jul-19 00:32 196 2 30.0
2019-Jul-19 00:17 210 1 30.0
2019-Jul-19 00:02 175 1 30.6